www.pogodaiklimat.ru

Погода и климат >> Архив погоды >> Россия >> Астраханская область >> Черный Яр


ПОГОДА в Черный Яр

  • Прогноз погоды в Черный Яр
  • Монитор погоды в Черный Яр

АРХИВ ПОГОДЫ в Черный Яр

Время (UTC), дата Ветер
(напр.,м/с)
 
Видим.   Явления Облачность Т
(С)
Тd
(С)
f
(%)
Тe
(С)
Тes
(С)
Комфортность P
(гПа)
Po
(гПа)
Тmin
(С)
Tmax
(С)
R
(мм)
R24
(мм)
S
(см)
06 15.04 В 2 10 км 10/3 600 м
[Sc Ac trans Ci fib]
+17.0 +10.5 66 +17 +20 1014.7 1014.0
09 15.04 В 3 10 км 10/3 1000 м
[Cu med, cong Ac trans Ci fib]
+20.2 +8.1 46 +22 +26 комфорт 1014.9 1014.3
12 15.04 СВ 3 10 км 10/4 600 м
[Cb cap Ac lent Ci]
+19.3 +8.5 50 +20 +22 1014.8 1014.1
15 15.04 СВ 4 10 км 10/0
[Ac cuf Ci fib]
+18.6 +8.4 51 +19 +19 1014.3 1013.7 +20.7
18 15.04 В 3 10 км 10/0
[Cs]
+15.4 +9.4 67 +15 +15 1015.3 1014.6
21 15.04 В 4 10 км 10/0
[As op]
+14.1 +6.5 60 +13 +13 1015.4 1014.8
00 16.04 В 3 10 км 10/0
[Ac und]
+11.6 +6.6 71 +10 +10 1015.1 1014.4
03 16.04 СВ 4 10 км 10/3 600 м
[Cb calv Ac As]
+10.8 +5.5 70 +9 +9 1015.2 1014.5 +10.8
06 16.04 СВ 4 10 км 10/0
[Ac cast]
+13.5 +5.7 59 +12 +14 1014.9 1014.3 +10.7
09 16.04 СВ 5
{12}
10 км 10/0
[Ac cast Ci fib]
+17.6 +4.5 42 +17 +20 1013.5 1012.8
12 16.04 СВ 5-11
{13}
10 км 10/4 600 м
[Sc Ac cast]
+18.0 +2.6 36 +18 +18 1012.3 1011.6
15 16.04 СВ 4
{11}
10 км 10/3 600 м
[Cu hum As op]
+16.3 +3.6 43 +16 +16 1012.5 1011.8 +18.9
18 16.04 В 1 10 км слаб. дождь 10/3 300 м
[Frnb As op]
+10.7 +9.0 89 +10 +10 1013.6 1012.9
21 16.04 СВ 4 10 км слаб. ливневой дождь 10/10 600 м
[Cb cap]
+9.8 +8.3 90 +7 +7 1013.0 1012.3
00 17.04 СВ 5
{10}
4000 м слаб. ливневой дождь 10/10 600 м
[Cb cap]
+9.2 +8.0 92 +6 +6 1012.6 1012.0
03 17.04 СВ 7-14
{14}
10 км в посл. час дождь {ливн. осадки} 10/4 600 м
[Cu hum As op]
+7.2 +4.3 82 +3 +3 1013.7 1013.0 +7.2 5
06 17.04 СВ 8-16
{16}
10 км {ливн. осадки, дождь} 10/10 600 м
[Sc diur, vesp]
+5.7 +1.5 74 0 0 1015.4 1014.7 +5.7
09 17.04 СВ 9-15
{16}
10 км {ливн. осадки} 10/10 600 м
[Sc diur, vesp]
+6.6 +0.9 67 +1 +1 1016.6 1015.9
12 17.04 СВ 9-18
{18}
10 км {ливн. осадки} 10/0
[Ac cuf]
+8.1 -0.2 56 +4 +4 1017.1 1016.5
15 17.04 СВ 8-14
{18}
10 км 10/3 600 м
[Sc As op]
+6.8 -7.7 35 +2 +2 1018.7 1018.0 +8.1 0.3
18 17.04 СВ 6-11
{15}
10 км 10/3 600 м
[Sc Ac trans]
+4.6 -8.8 37 0 0 1020.8 1020.1
21 17.04 С 6-11
{13}
10 км 9/0
[Ac trans]
+1.9 -8.0 48 -3 -3 1021.6 1020.9
00 18.04 С 6-10
{13}
10 км 8/0
[Ci fib]
+0.3 -8.1 53 -6 -6 1021.9 1021.2
03 18.04 С 5-11
{12}
10 км 3/0
[Ci fib]
-0.7 -7.7 59 -6 -6 1023.8 1023.0 -1.0
06 18.04 С 6-10
{11}
10 км ясно +3.9 -9.2 38 -1 +3 1024.6 1023.9
09 18.04 С 6-12
{14}
10 км ясно +7.1 -12.3 24 +4 +9 1024.8 1024.1
12 18.04 СВ 6-11
{13}
10 км 1/0
[Ci fib]
+8.8 -11.7 22 +6 +9 1024.5 1023.8
15 18.04 С 5
{11}
10 км ясно +7.5 -10.9 26 +5 +5 1024.3 1023.6 +9.0
18 18.04 С 3 10 км ясно +4.2 -7.1 44 +1 +1 1025.8 1025.1
21 18.04 С 3 10 км ясно +1.8 -6.4 54 -2 -2 1026.1 1025.4
00 19.04 С 2 10 км ясно 0.0 -6.8 60 -3 -3 1025.4 1024.7
03 19.04 С 3 10 км 3/0
[Ci fib]
-0.2 -7.6 57 -4 -4 1025.9 1025.2 -1.1
06 19.04 СВ 5 10 км 9/0
[Ci fib]
+7.9 -10.8 25 +5 +9 1026.4 1025.7
09 19.04 В 3
{10}
10 км 8/0
[Cc]
+9.9 -12.4 19 +9 +19 опасность
простуды
1026.1 1025.5
12 19.04 СВ 4 10 км 10/0
[Ac trans Ci fib]
+11.2 -12.4 18 +10 +14 1025.5 1024.8
15 19.04 С 4 10 км 9/0
[Ci fib]
+9.8 -12.3 20 +8 +8 1025.1 1024.4 +11.3
18 19.04 С 2 10 км 9/0
[Ci fib]
+5.6 -8.8 35 +4 +4 1026.2 1025.5
21 19.04 С 1 10 км 9/0
[Ci fib]
+2.7 -7.3 48 +2 +2 1026.2 1025.5
00 20.04 С 1 10 км 4/0
[Ci fib]
+0.7 -6.1 60 -1 -1 1025.9 1025.2
03 20.04 С 2 10 км 9/0
[Ci fib]
+1.0 -5.4 62 -2 -1 1025.7 1025.0 -1.1
06 20.04 С 2 10 км 3/0
[Ci fib]
+10.1 -8.7 26 +9 +18 1026.3 1025.6
09 20.04 СВ 3 10 км 3/0
[Ci fib]
+12.8 -10.8 18 +12 +24 опасность
простуды
1025.6 1025.0
12 20.04 С 4 10 км ясно +13.8 -11.4 16 +13 +19 1025.6 1025.0
15 20.04 В 2 10 км 3/0
[Ci fib]
+12.6 -9.9 20 +12 +13 1024.5 1023.9 +14.2
18 20.04 С 2 10 км 3/0
[Ci fib]
+7.8 -8.1 31 +7 +7 1025.9 1025.2
21 20.04 С 1 10 км ясно +4.3 -6.3 46 +4 +4 1025.8 1025.1
00 21.04 С 2 10 км ясно +2.3 -5.0 58 -0 -0 1024.9 1024.2
03 21.04 С 2 10 км 3/0
[Ci fib]
+3.2 -3.9 60 +1 +1 1025.5 1024.8 +1.4
06 21.04 СВ 4 10 км ясно +12.5 -6.8 25 +11 +17 1025.6 1025.0
09 21.04 СВ 2 10 км 3/3 1000 м
[Cu hum]
+14.2 -8.7 20 +14 +25 опасность
простуды
1025.4 1024.7
12 21.04 СВ 3 10 км 1/1 1000 м
[Cu hum]
+15.3 -8.7 18 +15 +21 1025.7 1024.0
15 21.04 СВ 2 10 км 1/0
[Ac cast]
+13.8 -6.8 23 +14 +14 1025.7 1024.0 +15.6
18 21.04 С 2 10 км 1/0
[Ac cast]
+8.5 -4.9 38 +7 +7 1025.5 1024.8
21 21.04 С 1 10 км ясно +6.0 -5.1 45 +6 +6 1025.6 1024.9
00 22.04 штиль 0 10 км ясно +4.0 -0.8 71 +3 +3 1025.5 1024.8
03 22.04 С 2 10 км ясно +4.5 -3.3 57 +2 +3 1026.0 1025.3 +1.6

 

Местоположение метеостанции Черный Яр (Астраханская область, Россия): широта 48.07 долгота 46.12 высота над уровнем моря 5 м.

В архиве по умолчанию представлена погода в Черный Яр за последнюю неделю. Архивные данные за месяц целиком и за предыдущие месяцы, начиная с января 2011 года, Вы можете получить, выбрав интересующий диапазон дат из раскрывающегося списка и нажав кнопку "Ввод!".


*Определитесь, кто Вы:
робот инопланетянин человек

Внимание! Время в таблицах - всемирное. Для получения местного времени необходимо прибавить поправку, которая равна 4 ч.

Смотрите также архив погоды в соседних городах и на ближайших метеорологических станциях:

Погода в Верхнем Баскунчаке (Астраханская область, Россия) (48 км)
Погода в Юсте (Калмыкия, Россия) (106 км)
Погода в Малых Дербетах (Калмыкия, Россия) (107 км)
Погода в Харабали (Астраханская область, Россия) (113 км)
Погода в Урде (Западно-Казахстанская область, Казахстан) (124 км)
Погода в Эльтоне (Волгоградская область, Россия) (130 км)
Погода в Волгограде город (Волгоградская область, Россия) (140 км)
Погода в Кетченерах (Калмыкия, Россия) (143 км)
Погода в Волгограде (Волгоградская область, Россия) (151 км)
Погода в Жанибеке (Западно-Казахстанская область, Казахстан) (156 км)

Пояснения к столбцам:

Ветер - указаны скорость ветра в м/с - средняя за 10 мин, порывы в срок и между сроками (в фигурных скобках) и направление, откуда дует ветер: С - северный, СВ - северо-восточный, В - восточный, ЮВ - юго-восточный, Ю - южный, ЮЗ - юго-западный, З - западный, СЗ - северо-западный.
Видимость - горизонтальная дальность видимости в метрах или километрах. При видимости от 1 до 10 км при отсутствии осадков обычно наблюдается дымка, при ухудшении видимости до 1 км и менее - туман. В сухую погоду видимость может ухудшаться дымом, пылью или мглою.
Явления - указаны атмосферные явления, наблюдавшиеся в срок или в последний час перед сроком; фигурными скобками обозначены явления, наблюдавшиеся между сроками (за 1-3 часа до срока); квадратными скобками обозначены град или гололедные отложения с указанием их диаметра в мм.
Облачность - указаны через наклонную черту общая и нижняя облачность в баллах и высота нижней границы облаков в метрах; квадратными скобками обозначены формы облаков: Ci - перистые, Cs - перисто-слоистые, Cc - перисто-кучевые, Ac - высококучевые, As - высокослоистые, Sc - слоисто-кучевые, Ns - слоисто-дождевые, Cu - кучевые, Cb - кучево-дождевые. Подробнее классификацию облаков см. в Атласе облаков (PDF).
T - Температура воздуха - температура, измеренная на высоте 2 м над землей.
Td - Температура точки росы - температура, при понижении до которой содержащийся в воздухе водяной пар достигнет насыщения.
f - Относительная влажность воздуха - влажноcть воздуха, измеренная на высоте 2 м над землей.
Te - Эффективная температура - температура, которую ощущает одетый по сезону человек в тени. Характеристика душности погоды. При расчете учитывается влияние влажности воздуха и скорости ветра на теплоощущения человека.
Tes - Эффективная температура на солнце - температура, которую ощущает человек, с поправкой на солнечный нагрев. Характеристика знойности погоды. Зависит от высоты солнца над горизонтом, облачности и скорости ветра. Ночью, в пасмурную погоду, а также при ветре 12 м/с и более поправка равна нулю.
P - Атмосферное давление - приведенное к уровню моря атмосферное давление.
Po - Атмосферное давление - измеренное на уровне метеостанции атмосферное давление.
Tmin - Минимальная температура - минимум температуры воздуха на высоте 2 м над землей.
Tmax - Максимальная температура - максимум температуры воздуха на высоте 2 м над землей.
R - Количество осадков - Количество выпавших осадков за период времени, мм. При наведении курсора мыши на число - период времени, за который выпало указанное количество осадков.
R24 - Количество осадков - Количество выпавших осадков за 24 часа, мм.
S - Снежный покров - Высота снежного покрова, см. При наведении курсора мыши на число - состояние снежного покрова и степень покрытия местности в баллах.